Weather in Sheridan

United States     45°06′11″N   106°48′02″W
temp.,
°C
wind,
m/s
gust,
m/s
humid.,
%
clouds,
%
prec.,
mm/h
press.,
hPa
HPBL,
m
6 may, thu
thu600:00+6ssw2272100 0.1 102510
03:00+5sw228064 0.0 102610
06:00+3ssw11805 0.0 102610
09:00+11sse235312 0.0 1024466
12:00+16se33385 0.0 10201240
15:00+19ese22330 0.0 10171611
18:00+19e33335 0.0 10151364
21:00+13e410480 0.0 1016153
7 may, fri
fri700:00+10ese365598 0.0 1016106
03:00+8ene22555 0.0 101322
06:00+7ese226772 0.0 101125
09:00+15se344951 0.0 1009385
12:00+22se343382 0.0 1004785
15:00+27se45239 0.0 10001610
18:00+21w91240100 0.1 999398
21:00+16ssw2257100 0.3 99817
8 may, sat
sat800:00+11s1281100 0.4 100114
03:00+11wnw2280100 0.1 99920
06:00+10wnw399277 0.6 1000329
09:00+8nw91488100 1.3 1005612
12:00+8nw7107674 1.3 1007900
15:00+12nw4649100 0.0 10061724
18:00+10nne8762100 0.3 10071280
21:00+7ne5871100 0.1 1010558
9 may, sun
sun900:00+6n5790100 2.0 1011763
03:00+4nw5997100 4.9 1012742
06:00+3nw5997100 8.3 1014570
09:00+3nw51197100 3.5 1015666
12:00+3nw51096100 5.7 1016706
15:00+3nnw4895100 2.2 1017520
18:00+4n458697 2.4 1018656
21:00+2nne2396100 0.3 1021307
10 may, mon
mon1000:00+2nne2391100 0.3 1022343
03:00+2n1192100 0.1 1022208
06:00+2wsw119497 0.1 1023161
09:00+4w1176100 0.1 1023789
12:00+5se2271100 0.1 1024711
15:00+8e236289 0.1 10221225
18:00+7se5576100 0.7 1022896
21:00+5e478985 0.2 1024310